This demonstration page uses our WeatherBlox Daily Observations layout. Learn more.

Left ArrowRight Arrow

39.08367, -84.50855

Hourly Observations for May 1, 2017

Temp ( °F °C ) Dew Point ( °F °C ) Humidity (%) Winds ( mph kmh ) Pressure ( in mb ) Visibility ( mi km ) Precip ( " mm )
12:53 am 00:53 Mostly Cloudy 70 21.1 64 17.8 82 82 SSW 10 17 29.74 1007 10 16.0934 N/A
1:53 am 01:53 Cloudy 69 20.6 64 17.8 84 84 SSW 8 13 29.72 1007 10 16.0934 N/A
2:53 am 02:53 Cloudy with Light Rain 70 21.1 64 17.8 82 82 S 15 24 29.69 1005 10 16.0934 N/A
3:53 am 03:53 Mostly Cloudy 68 20 65 18.3 90 90 SSE 8 13 29.67 1005 10 16.0934 0.02 0.508
4:53 am 04:53 Mostly Cloudy 69 20.6 65 18.3 87 87 S 13 20 29.64 1004 10 16.0934 N/A
5:53 am 05:53 Mostly Cloudy 69 20.6 65 18.3 87 87 S 16 26 29.61 1003 10 16.0934 N/A
6:53 am 06:53 Cloudy with Heavy Rain 62 16.7 59 15 90 90 W 26 43 29.62 1003 2.5 4.02335 0.06 1.524
6:57 am 06:57 Cloudy with Rain 60 15.6 58 14.4 93 93 SW 21 33 29.65 1004 4 6.43736 0.01 0.254
7:03 am 07:03 Cloudy with Rain 61 16 57 14 88 88 SW 21 33 29.65 1004 4 6.43736 N/A
7:53 am 07:53 Cloudy with Light Rain 56 13.3 54 12.2 93 93 SSW 8 13 29.66 1004 9 14.48406 0.08 2.032
8:53 am 08:53 Cloudy 56 13.3 52 11.1 87 87 SW 8 13 29.66 1004 10 16.0934 0.03 0.762
9:53 am 09:53 Cloudy 57 13.9 54 12.2 90 90 SSE 7 11 29.65 1004 10 16.0934 N/A
10:53 am 10:53 Mostly Cloudy 60 15.6 55 12.8 84 84 S 7 11 29.61 1003 10 16.0934 N/A
11:53 am 11:53 Mostly Cloudy 63 17.2 54 12.2 73 73 SSW 14 22 29.59 1002 10 16.0934 N/A
12:53 pm 12:53 Mostly Cloudy 66 18.9 53 11.7 63 63 SW 17 28 29.56 1001 10 16.0934 N/A
1:53 pm 13:53 Mostly Cloudy 68 20 55 12.8 63 63 SW 22 35 29.53 1000 10 16.0934 N/A
2:53 pm 14:53 Mostly Cloudy 68 20 52 11.1 57 57 SW 26 43 29.57 1001 10 16.0934 N/A
3:53 pm 15:53 Mostly Cloudy 63 17.2 50 10 63 63 SW 18 30 29.6 1002 10 16.0934 N/A
4:53 pm 16:53 Mostly Cloudy 63 17.2 47 8.3 56 56 SW 29 46 29.61 1003 10 16.0934 N/A
5:53 pm 17:53 Cloudy 60 15.6 45 7.2 58 58 W 22 35 29.65 1004 10 16.0934 N/A
6:53 pm 18:53 Cloudy 57 13.9 43 6.1 60 60 WSW 22 35 29.69 1005 10 16.0934 N/A
7:53 pm 19:53 Partly Cloudy 81 27 63 17 54 54 S 14 22 29.8 1009 10 16.0934 N/A
8:53 pm 20:53 Cloudy 55 12.8 43 6.1 64 64 SW 14 22 29.72 1007 10 16.0934 N/A
9:53 pm 21:53 Cloudy 54 12.2 42 5.6 64 64 WSW 16 26 29.74 1007 10 16.0934 N/A
10:53 pm 22:53 Cloudy 54 12.2 42 5.6 64 64 SW 20 31 29.75 1007 10 16.0934 N/A
11:53 pm 23:53 Cloudy 53 11.7 43 6.1 69 69 SW 9 15 29.74 1007 10 16.0934 N/A

Powered by AerisWeather